カタログに戻る

HETE 2

Lost科学VLEO
NORAD 26561·PAYLOAD·🇺🇸 United States

打ち上げ Oct 9, 2000 から Ronald Reagan Space and Missile Test Range

Loading…

次のパス (今後24時間)

TLE

古いSource: Space-Track

元期: Jan 5, 2024, 12:11 UTC

1 26561U 00061A   24005.50772891  .00009088  00000-0  38599-3 0  9999
2 26561   1.9416 347.7946 0020616  67.5655 292.6569 15.17702077276946

AllMySatでHETE 2をリアルタイム追跡

Download on the App Store